Tracking 31027 objects as of 19-Jul-2025
HD Live streaming from Space Station
objects crossing your sky now

STARLINK-2164

Track STARLINK-2164 now!
10-day predictions
STARLINK-2164 is classified as:


NORAD ID: 47750
Int'l Code: 2021-017AE
Perigee: 553.4 km
Apogee: 555.3 km
Inclination: 53.1 °
Period: 95.6 minutes
Semi major axis: 6925 km
RCS: Unknown
Launch date: March 4, 2021
Source: United States (US)
Launch site: AIR FORCE EASTERN TEST RANGE (AFETR)
Your satellite tracking list
FLOCK 4V 13
Track 1 satellite(s)




NASA's NSSDC Master Catalog

Two Line Element Set (TLE):
1 47750U 21017AE  25199.64826568  .00000566  00000-0  56903-4 0  9999
2 47750  53.0541 172.2708 0001404  74.3887 285.7257 15.06394792241960
Source of the keplerian elements: AFSPC